Tracking 18957 objects as of 23-Jan-2018
HD Live streaming from Space Station
objects crossing your sky now

COSMOS 1285

Track COSMOS 1285 now!
COSMOS 1285 is classified as:


NORAD ID: 12627
Int'l Code: 1981-071A
Perigee: 5,710.8 km
Apogee: 35,112.6 km
Inclination: 68.7 °
Period: 727.0 minutes
Semi major axis: 26782 km
RCS: 7.7618 m2 (large)
Launch date: August 4, 1981
Source: Commonwealth of Independent States (former USSR) (CIS)
Launch site: PLESETSK MISSILE AND SPACE COMPLEX (PKMTR)
aabbcc
Your satellite tracking list
Your tracking list is empty




NASA's NSSDC Master Catalog

Two Line Element Set (TLE):
1 12627U 81071A   18022.79941826 -.00000347 +00000-0 +00000-0 0  9999
2 12627 068.6794 276.6785 5488963 069.8439 231.0908 01.98071663185775
Source of the keplerian elements: AFSPC